Hourly Weather Holubyn

Today, 12 April, Monday

Time Temperature Precipitation Wind Pressure Humidity
00:00 +6°C° 0 mm 2 mps 747 mmHg 64%
01:00 +6°C° 0 mm 2 mps 747 mmHg 64%
02:00 +5°C° 0 mm 2 mps 747 mmHg 64%
03:00 +5°C° 0 mm 2 mps 747 mmHg 65%
04:00 +5°C° 0 mm 2 mps 746 mmHg 66%
05:00 +4°C° 0 mm 2 mps 746 mmHg 67%
06:00 +6°C° 0 mm 2 mps 746 mmHg 63%
07:00 +7°C° 0 mm 2 mps 746 mmHg 59%
08:00 +9°C° 0 mm 2 mps 746 mmHg 55%
09:00 +12°C° 0 mm 2 mps 746 mmHg 49%
10:00 +13°C° 0 mm 2 mps 745 mmHg 44%
11:00 +15°C° 0 mm 2 mps 745 mmHg 39%
12:00 +15°C° 0 mm 2 mps 745 mmHg 37%
13:00 +16°C° 0 mm 2 mps 744 mmHg 36%
14:00 +17°C° 0 mm 2 mps 744 mmHg 34%
15:00 +17°C° 0 mm 2 mps 744 mmHg 36%
16:00 +16°C° 0 mm 2 mps 744 mmHg 39%
17:00 +16°C° 0 mm 1 mps 743 mmHg 41%
18:00 +15°C° 0 mm 2 mps 743 mmHg 47%
19:00 +13°C° 0 mm 2 mps 744 mmHg 53%
20:00 +10°C° 0 mm 3 mps 744 mmHg 59%
21:00 +9°C° 0 mm 2 mps 744 mmHg 64%
22:00 +8°C° 0 mm 2 mps 744 mmHg 70%
23:00 +8°C° 0 mm 2 mps 743 mmHg 76%

Tomorrow, 13 April, Tuesday

Time Temperature Precipitation Wind Pressure Humidity
00:00 +7°C° 0 mm 2 mps 743 mmHg 76%
01:00 +7°C° 0 mm 2 mps 743 mmHg 77%
02:00 +8°C° 0 mm 1 mps 743 mmHg 77%
03:00 +7°C° 0 mm 1 mps 743 mmHg 77%
04:00 +7°C° 0 mm 1 mps 743 mmHg 78%
05:00 +7°C° 0 mm 1 mps 743 mmHg 78%
06:00 +8°C° 0 mm 1 mps 743 mmHg 74%
07:00 +9°C° 0 mm 1 mps 743 mmHg 70%
08:00 +11°C° 0 mm 1 mps 743 mmHg 66%
09:00 +12°C° 0 mm 1 mps 743 mmHg 60%
10:00 +14°C° 0 mm 1 mps 743 mmHg 55%
11:00 +15°C° 0 mm 1 mps 742 mmHg 49%
12:00 +15°C° 0 mm 2 mps 742 mmHg 50%
13:00 +15°C° 0 mm 2 mps 742 mmHg 51%
14:00 +14°C° 0 mm 3 mps 742 mmHg 52%
15:00 +13°C° 0 mm 3 mps 741 mmHg 61%
16:00 +11°C° 0 mm 3 mps 741 mmHg 70%
17:00 +10°C° 0 mm 3 mps 741 mmHg 79%
18:00 +10°C° 0.1 mm 3 mps 741 mmHg 83%
19:00 +9°C° 0.1 mm 3 mps 741 mmHg 87%
20:00 +9°C° 0.1 mm 2 mps 741 mmHg 90%
21:00 +9°C° 0 mm 2 mps 741 mmHg 91%
22:00 +9°C° 0 mm 2 mps 740 mmHg 91%
23:00 +9°C° 0 mm 2 mps 740 mmHg 92%

Day after tomorrow, 14 April, Wednesday

Time Temperature Precipitation Wind Pressure Humidity
00:00 +8°C° 0.2 mm 2 mps 740 mmHg 93%
01:00 +8°C° 0.2 mm 2 mps 739 mmHg 94%
02:00 +8°C° 0.2 mm 2 mps 739 mmHg 95%
03:00 +8°C° 0.2 mm 2 mps 739 mmHg 95%
04:00 +9°C° 0.2 mm 1 mps 739 mmHg 96%
05:00 +9°C° 0.2 mm 1 mps 739 mmHg 96%
06:00 +9°C° 0.7 mm 1 mps 739 mmHg 96%
07:00 +9°C° 0.7 mm 1 mps 739 mmHg 96%
08:00 +8°C° 0.7 mm 2 mps 739 mmHg 96%
09:00 +8°C° 0.7 mm 2 mps 739 mmHg 95%
10:00 +8°C° 0.7 mm 3 mps 739 mmHg 94%
11:00 +8°C° 0.7 mm 3 mps 739 mmHg 92%
12:00 +9°C° 0.2 mm 3 mps 739 mmHg 89%
13:00 +9°C° 0.2 mm 3 mps 739 mmHg 86%
14:00 +9°C° 0.2 mm 2 mps 739 mmHg 83%
15:00 +10°C° 0.1 mm 2 mps 739 mmHg 82%
16:00 +10°C° 0.1 mm 2 mps 739 mmHg 81%
17:00 +10°C° 0.1 mm 2 mps 738 mmHg 81%
18:00 +9°C° 0.1 mm 2 mps 739 mmHg 83%
19:00 +9°C° 0.1 mm 2 mps 739 mmHg 85%
20:00 +8°C° 0.1 mm 2 mps 739 mmHg 87%
21:00 +8°C° 0 mm 2 mps 739 mmHg 89%
22:00 +8°C° 0 mm 2 mps 739 mmHg 90%
23:00 +8°C° 0 mm 2 mps 739 mmHg 92%

15 April, Thursday

Time Temperature Precipitation Wind Pressure Humidity
00:00 +8°C° 0 mm 2 mps 739 mmHg 92%
01:00 +7°C° 0 mm 2 mps 739 mmHg 93%
02:00 +7°C° 0 mm 2 mps 739 mmHg 93%
03:00 +7°C° 0 mm 2 mps 739 mmHg 93%
04:00 +7°C° 0 mm 2 mps 739 mmHg 94%
05:00 +7°C° 0 mm 2 mps 738 mmHg 94%
06:00 +7°C° 0 mm 2 mps 739 mmHg 91%
07:00 +8°C° 0 mm 2 mps 739 mmHg 89%
08:00 +8°C° 0 mm 2 mps 739 mmHg 87%
09:00 +9°C° 0.2 mm 2 mps 739 mmHg 81%
10:00 +10°C° 0.2 mm 2 mps 739 mmHg 76%
11:00 +12°C° 0.2 mm 2 mps 738 mmHg 70%
12:00 +12°C° 0.3 mm 2 mps 738 mmHg 72%
13:00 +12°C° 0.3 mm 2 mps 738 mmHg 73%
14:00 +12°C° 0.3 mm 2 mps 738 mmHg 74%
15:00 +10°C° 0.4 mm 3 mps 738 mmHg 79%
16:00 +10°C° 0.4 mm 3 mps 738 mmHg 84%
17:00 +8°C° 0.4 mm 4 mps 738 mmHg 88%
18:00 +8°C° 0.4 mm 4 mps 738 mmHg 90%
19:00 +7°C° 0.4 mm 4 mps 738 mmHg 92%
20:00 +7°C° 0.4 mm 4 mps 738 mmHg 94%
21:00 +8°C° 0.4 mm 3 mps 738 mmHg 95%
22:00 +8°C° 0.4 mm 3 mps 737 mmHg 95%
23:00 +8°C° 0.4 mm 3 mps 737 mmHg 95%

16 April, Friday

Time Temperature Precipitation Wind Pressure Humidity
00:00 +7°C° 0.2 mm 3 mps 737 mmHg 95%
01:00 +7°C° 0.2 mm 3 mps 737 mmHg 95%
02:00 +7°C° 0.2 mm 2 mps 737 mmHg 96%
03:00 +7°C° 0.1 mm 2 mps 737 mmHg 96%
04:00 +7°C° 0.1 mm 2 mps 737 mmHg 96%
05:00 +6°C° 0.1 mm 2 mps 737 mmHg 96%
06:00 +7°C° 0.1 mm 2 mps 737 mmHg 95%
07:00 +7°C° 0.1 mm 2 mps 737 mmHg 93%
08:00 +7°C° 0.1 mm 2 mps 737 mmHg 92%
09:00 +8°C° 0.8 mm 2 mps 737 mmHg 92%
10:00 +8°C° 0.8 mm 3 mps 737 mmHg 93%
11:00 +8°C° 0.8 mm 3 mps 737 mmHg 93%
12:00 +8°C° 1.7 mm 3 mps 737 mmHg 94%
13:00 +8°C° 1.7 mm 3 mps 736 mmHg 95%
14:00 +6°C° 1.7 mm 4 mps 736 mmHg 95%
15:00 +7°C° 0.7 mm 3 mps 736 mmHg 94%
16:00 +7°C° 0.7 mm 3 mps 736 mmHg 92%
17:00 +7°C° 0.7 mm 3 mps 736 mmHg 91%
18:00 +5°C° 0 mm 3 mps 737 mmHg 92%
19:00 +5°C° 0 mm 3 mps 737 mmHg 94%
20:00 +4°C° 0 mm 3 mps 737 mmHg 96%
21:00 +5°C° 0 mm 2 mps 738 mmHg 96%
22:00 +5°C° 0 mm 2 mps 738 mmHg 96%
23:00 +6°C° 0 mm 1 mps 738 mmHg 96%

17 April, Saturday

Time Temperature Precipitation Wind Pressure Humidity
00:00 +7°C° 0 mm 1 mps 738 mmHg 96%
01:00 +7°C° 0 mm 1 mps 739 mmHg 95%
02:00 +7°C° 0 mm 1 mps 739 mmHg 95%
03:00 +7°C° 0 mm 1 mps 739 mmHg 95%
04:00 +6°C° 0 mm 2 mps 740 mmHg 95%
05:00 +6°C° 0 mm 2 mps 740 mmHg 95%
06:00 +6°C° 0 mm 2 mps 741 mmHg 93%
07:00 +7°C° 0 mm 3 mps 741 mmHg 90%
08:00 +7°C° 0 mm 3 mps 742 mmHg 87%
09:00 +8°C° 0 mm 3 mps 742 mmHg 81%
10:00 +10°C° 0 mm 4 mps 742 mmHg 74%
11:00 +11°C° 0 mm 4 mps 743 mmHg 68%
12:00 +11°C° 0.1 mm 4 mps 743 mmHg 66%
13:00 +10°C° 0.1 mm 5 mps 743 mmHg 64%
14:00 +10°C° 0.1 mm 5 mps 743 mmHg 62%
15:00 +11°C° 0 mm 4 mps 744 mmHg 64%
16:00 +10°C° 0 mm 3 mps 744 mmHg 66%
17:00 +10°C° 0 mm 3 mps 744 mmHg 68%
18:00 +9°C° 0 mm 3 mps 744 mmHg 72%
19:00 +8°C° 0 mm 2 mps 745 mmHg 76%
20:00 +7°C° 0 mm 2 mps 745 mmHg 80%
21:00 +7°C° 0 mm 2 mps 745 mmHg 81%
22:00 +7°C° 0 mm 2 mps 746 mmHg 81%
23:00 +8°C° 0 mm 1 mps 746 mmHg 81%
Show more